Location: Banios
(43.0451°N, 0.2335°E)
Time: 08:48:15
(UTC+00:00)

A-11 Canister half - Pass Details

Date: 18 May 2021
Orbit: 1527 x 1681 km, 47.3° (Epoch: 22 June)

Event Time Altitude Azimuth Distance (km) Brightness Sun altitude
Rises 09:21:00 0° 260° (W) 4,717 11.2 50.1°
Reaches altitude 10° 09:24:02 10° 262° (W) 3,751 10.8 50.6°
Maximum altitude 09:33:35 75° 347° (NNW) 1,651 10.0 52.2°
Drops below altitude 10° 09:43:30 10° 73° (ENE) 3,878 11.6 53.8°
Sets 09:46:42 0° 76° (ENE) 4,884 12.0 54.3°
